{"data":{"norad_id":50848,"intl_designator":"2022-001AX","name":"STARLINK-3315","alt_names":[],"object_type":"PAYLOAD","status":"ACTIVE","operator":null,"country":"US","launch_date":"2022-01-06","launch_site_code":"AFETR","launch_vehicle":null,"mission":null,"orbit_class":"UNKNOWN","rcs_meters":null,"size_class":null,"mass_kg":null,"dimensions":null,"purposes":["comms"],"wikipedia_slug":null,"has_3d_model":false,"image_url":null,"decayed_at":null,"tle_current":{"epoch":"2026-09-19T21:36:51.020064Z","epoch_age_seconds":100065,"freshness":"FRESH","line1":"1 50848U 22001AX  26262.90059051  .00000857  00000+0  36519-4 0  9994","line2":"2 50848  53.1616  12.8749 0001219  77.9070 282.2069 15.34388404259783","mean_motion":15.34388404,"eccentricity":0.0001219,"inclination_deg":53.1616,"raan_deg":12.8749,"arg_perigee_deg":77.907,"mean_anomaly_deg":282.2069,"bstar":3.6519e-5,"rev_number":25978,"period_min":93.848467327181,"perigee_km":461.90380355323,"apogee_km":463.57160880659,"semimajor_km":6840.8747061799,"source":"CELESTRAK","updated_at":"2026-09-20T09:00:39.582928Z"}}}